{"data":{"norad_id":54687,"epoch":"2026-05-25T05:02:19.715424Z","epoch_age_seconds":57731,"freshness":"FRESH","line1":"1 54687U 22167F   26145.20995041  .00147244  00000+0  66047-3 0  9993","line2":"2 54687  97.6156 330.4411 0002641 158.3658 201.7723 15.83745758193188","mean_motion":15.83745758,"eccentricity":0.0002641,"inclination_deg":97.6156,"raan_deg":330.4411,"arg_perigee_deg":158.3658,"mean_anomaly_deg":201.7723,"bstar":0.00066047,"rev_number":19318,"period_min":90.923684734504,"perigee_km":318.08976694722,"apogee_km":321.62764827998,"semimajor_km":6697.9957076136,"source":"CELESTRAK","updated_at":"2026-05-25T13:37:58.708877Z"}}